KD7DVD-1 Weather Reports


Display with metric or nautical units.
time (UTC)temp
F
wind
direction
speed
MPH
gust
MPH
rain 1hr
in
rain 24hr
in
rain mn
in
humidity
%
barometer
mb
20260503220016 79 270 2.0 7.0 0.00 0.00 0.00 41 1010.9
20260503213016 77 270 1.0 7.0 0.00 0.00 0.00 40 1011.1
20260503210016 77 0.0 4.0 0.00 0.00 0.00 43 1011.2
20260503203016 75 90 1.0 6.0 0.00 0.00 0.00 48 1011.8
20260503200016 74 90 1.0 5.0 0.00 0.00 0.00 50 1012.1
20260503193017 74 90 1.0 5.0 0.00 0.00 0.00 50 1012.7
20260503190016 73 0.0 4.0 0.00 0.00 0.00 50 1013.1
20260503183016 71 90 1.0 6.0 0.00 0.00 0.00 56 1013.2
20260503180016 69 90 1.0 5.0 0.00 0.00 0.00 61 1013.4
20260503173016 67 90 1.0 4.0 0.00 0.00 0.00 64 1013.6
20260503053015 61 0.0 0.0 0.00 0.00 0.00 69 1013.9
20260503050015 62 0.0 0.0 0.00 0.00 0.00 68 1013.8
20260503043015 63 0.0 0.0 0.00 0.00 0.00 67 1013.7
20260503040017 65 0.0 0.0 0.00 0.00 0.00 64 1013.3
20260503033018 67 0.0 1.0 0.00 0.00 0.00 59 1012.8
20260503030017 69 0.0 5.0 0.00 0.00 0.00 56 1012.5
20260503023017 72 0.0 3.0 0.00 0.00 0.00 53 1012.3
20260503020017 76 0.0 3.0 0.00 0.00 0.00 48 1012.3
20260503013017 78 0.0 2.0 0.00 0.00 0.00 46 1012.2
20260503010017 78 0.0 4.0 0.00 0.00 0.00 45 1012.4
20260503003017 76 90 1.0 6.0 0.00 0.00 0.00 46 1012.6
20260503000016 77 0.0 5.0 0.00 0.00 0.00 46 1012.9
20260502233016 75 0.0 7.0 0.00 0.00 0.00 50 1013.2
20260502230016 74 90 1.0 6.0 0.00 0.00 0.00 50 1013.5
20260502223016 73 90 1.0 6.0 0.00 0.00 0.00 52 1013.9